User: anonymous   Login
Location: *
(48.8489°N, 2.3218°E)
Time: 13:44:46
(UTC+00:00)
Language:

Meteor 2-8 Rocket - Orbit

View from above orbital plane
View from above orbital plane
View from above satellite
View from above satellite

Ground track
Ground track

The orbit data is extracted from the following two-line orbital elements,

1 13114U 82025B   19292.03206446  .00000027  00000-0  10559-4 0  9998
2 13114  82.5398 243.3267 0013181 272.5892 133.4110 13.84673253898575
Epoch (UTC): 19 October 2019 00:46:10
Eccentricity: 0.0013181
inclination: 82.5398°
perigee height: 938 km
apogee height: 957 km
right ascension of ascending node: 243.3267°
argument of perigee: 272.5892°
revolutions per day: 13.84673253
mean anomaly at epoch: 133.4110°
orbit number at epoch: 89857

The dashed part of the orbit path shows where the satellite is in the earth's shadow,  

DLR